User: anonymous   Login
Location: Unspecified
(0.0000°N, 0.0000°E)
Time: 22:13:08
(UTC+00:00)
Language:

STARLINK-2140 - Orbit

View from above orbital plane
View from above orbital plane
View from above satellite
View from above satellite

Ground track
Ground track

The orbit is defined by the following mean orbital elements,

1 47730U          26145.46242669 +.00000000 +00000-0 -11264-3 0 00009
2 47730  53.1586 219.8942 0001274  92.9356 267.1791 15.31689132    06
Epoch (UTC): 25 May 2026 11:05:53
Eccentricity: 0.0001274
inclination: 53.1586°
perigee height: 470 km
apogee height: 472 km
right ascension of ascending node: 219.8942°
argument of perigee: 92.9356°
revolutions per day: 15.31689132
mean anomaly at epoch: 267.1791°

The dashed part of the orbit path shows where the satellite is in the earth's shadow,  

DLR